Temp
-27 -26 -24 -21 -18 -16 -15 -15 -16 -15 -14 -15 -15 -15 -15 -14 -13 -13 -13 -13 -14 -14 -13 -12 -12 -12 -12 -13 -12 -12 -12 -11 -11 -11 -11 -12 -12 -12
-27 -28 -27 -24 -22 -18 -16 -15 -16 -15 -15 -15 -15 -15 -15 -14 -14 -13 -14 -13 -13 -14 -13 -13 -12 -11 -12 -13 -13 -13 -12 -12 -11 -11 -11 -12 -12 -12
-28 -28 -28 -27 -25 -22 -18 -17 -16 -16 -15 -16 -16 -15 -15 -14 -13 -13 -14 -13 -13 -13 -14 -13 -13 -13 -13 -14 -13 -13 -12 -12 -12 -12 -11 -11 -12 -11
-29 -29 -29 -28 -27 -24 -22 -19 -18 -16 -16 -15 -16 -16 -17 -15 -14 -14 -13 -13 -13 -13 -14 -13 -13 -14 -13 -12 -13 -13 -13 -12 -12 -12 -12 -12 -12 -12
-30 -29 -29 -29 -28 -26 -24 -22 -19 -17 -17 -16 -16 -16 -16 -15 -14 -13 -13 -13 -13 -14 -13 -13 -13 -14 -14 -13 -14 -13 -13 -13 -13 -13 -12 -12 -12 -12
-31 -30 -30 -29 -29 -27 -25 -23 -21 -19 -17 -17 -18 -17 -16 -15 -14 -14 -14 -14 -14 -14 -14 -14 -14 -14 -14 -14 -14 -14 -14 -13 -14 -14 -14 -13 -13 -13
-31 -30 -30 -30 -29 -29 -27 -25 -22 -20 -18 -17 -18 -18 -16 -15 -14 -15 -15 -14 -14 -14 -14 -14 -13 -14 -14 -14 -14 -14 -14 -13 -13 -13 -14 -14 -13 -13
-32 -31 -30 -30 -30 -29 -28 -26 -24 -21 -20 -18 -18 -18 -17 -15 -15 -15 -14 -15 -15 -14 -14 -13 -13 -14 -14 -14 -14 -14 -14 -14 -13 -14 -14 -14 -14 -14
-32 -31 -31 -30 -30 -30 -29 -27 -25 -23 -21 -19 -19 -18 -18 -17 -17 -17 -17 -16 -16 -14 -14 -15 -14 -13 -13 -14 -14 -14 -14 -14 -14 -13 -14 -14 -14 -14
-32 -31 -31 -30 -30 -30 -30 -28 -26 -24 -22 -20 -20 -20 -19 -17 -17 -17 -16 -16 -15 -15 -14 -14 -13 -13 -13 -14 -14 -14 -14 -15 -14 -14 -14 -14 -14 -14
-32 -31 -31 -31 -30 -30 -29 -29 -27 -25 -23 -22 -20 -21 -19 -18 -17 -16 -15 -16 -15 -15 -14 -14 -14 -13 -13 -14 -14 -15 -14 -14 -14 -14 -14 -15 -15 -14
-32 -32 -32 -31 -31 -31 -30 -29 -28 -27 -25 -23 -21 -20 -20 -18 -17 -16 -17 -16 -16 -16 -15 -15 -14 -14 -14 -14 -14 -14 -15 -14 -14 -14 -15 -15 -15 -15
-33 -33 -32 -32 -32 -31 -31 -30 -29 -28 -26 -24 -22 -21 -20 -19 -18 -16 -16 -16 -16 -16 -16 -15 -14 -14 -14 -14 -14 -15 -14 -14 -15 -15 -15 -14 -15 -15
-33 -33 -32 -32 -32 -31 -31 -30 -30 -29 -27 -25 -23 -22 -20 -19 -18 -17 -16 -18 -17 -16 -16 -15 -15 -14 -14 -14 -14 -15 -15 -15 -15 -15 -15 -16 -15 -15
-32 -32 -32 -32 -31 -31 -30 -30 -30 -29 -28 -26 -24 -23 -21 -19 -18 -18 -17 -17 -17 -17 -17 -15 -15 -15 -15 -14 -14 -14 -15 -15 -15 -15 -15 -15 -15 -15
-32 -32 -32 -32 -32 -32 -31 -30 -29 -29 -28 -27 -25 -24 -22 -20 -18 -17 -17 -17 -17 -17 -17 -17 -16 -15 -15 -15 -14 -15 -15 -15 -15 -15 -15 -16 -15 -15
-32 -32 -32 -31 -31 -31 -31 -31 -30 -29 -28 -28 -26 -24 -23 -21 -19 -18 -17 -17 -16 -16 -17 -17 -16 -16 -15 -15 -15 -14 -15 -15 -15 -15 -15 -15 -15 -15
-32 -32 -32 -31 -31 -31 -31 -31 -30 -30 -29 -28 -27 -26 -23 -22 -20 -19 -19 -17 -16 -16 -16 -17 -17 -17 -16 -15 -15 -15 -15 -15 -15 -15 -15 -15 -15 -15
-32 -32 -32 -32 -31 -31 -30 -30 -30 -30 -30 -29 -27 -26 -25 -23 -22 -20 -18 -17 -17 -18 -18 -18 -17 -17 -16 -15 -16 -15 -15 -15 -15 -15 -15 -15 -15 -15
-31 -32 -32 -32 -31 -31 -31 -30 -30 -30 -30 -29 -29 -28 -26 -24 -22 -21 -20 -18 -17 -18 -18 -18 -18 -18 -16 -15 -17 -16 -16 -16 -16 -15 -15 -15 -15 -15
-31 -31 -31 -32 -31 -31 -31 -31 -30 -30 -30 -29 -29 -29 -28 -26 -23 -21 -21 -19 -18 -17 -17 -18 -18 -17 -17 -17 -17 -16 -16 -16 -16 -16 -15 -15 -15 -15
-32 -31 -31 -31 -31 -31 -31 -31 -30 -30 -30 -29 -29 -29 -28 -27 -25 -23 -21 -20 -19 -18 -17 -17 -18 -19 -18 -17 -16 -16 -17 -17 -16 -16 -16 -16 -15 -16
-31 -31 -31 -31 -31 -31 -30 -31 -30 -30 -30 -30 -29 -28 -28 -28 -27 -25 -22 -20 -20 -18 -18 -18 -18 -18 -17 -18 -18 -18 -18 -17 -17 -16 -16 -16 -16 -16
Height
5401 5407 5418 5435 5452 5473 5495 5516 5536 5554 5570 5589 5604 5609 5622 5635 5647 5654 5660 5669 5677 5689 5702 5710 5719 5722 5724 5731 5742 5748 5754 5761 5767 5771 5775 5780 5784 5788
5382 5388 5396 5408 5423 5442 5467 5492 5510 5531 5549 5569 5583 5591 5606 5621 5633 5640 5646 5655 5662 5673 5684 5694 5705 5704 5710 5721 5729 5737 5744 5750 5756 5761 5765 5770 5774 5777
5362 5370 5378 5386 5400 5417 5438 5460 5484 5506 5530 5545 5560 5571 5588 5603 5616 5627 5635 5643 5647 5656 5667 5677 5689 5697 5701 5710 5719 5725 5734 5739 5745 5750 5755 5759 5763 5767
5341 5352 5361 5369 5380 5395 5413 5435 5459 5482 5505 5523 5538 5556 5573 5586 5600 5610 5620 5629 5636 5642 5652 5662 5673 5684 5694 5694 5707 5715 5722 5726 5733 5739 5744 5749 5753 5758
5323 5335 5345 5353 5363 5376 5393 5411 5434 5457 5483 5501 5521 5537 5552 5568 5585 5593 5603 5613 5621 5630 5638 5648 5659 5666 5679 5687 5693 5700 5707 5713 5721 5726 5732 5737 5742 5746
5308 5320 5331 5340 5349 5360 5375 5392 5412 5435 5458 5479 5499 5518 5535 5552 5567 5576 5584 5597 5607 5614 5624 5634 5643 5652 5661 5669 5678 5686 5694 5702 5709 5713 5719 5724 5730 5735
5297 5309 5319 5328 5337 5346 5358 5374 5392 5413 5434 5457 5479 5498 5516 5532 5548 5556 5568 5582 5590 5600 5611 5619 5629 5639 5646 5654 5664 5673 5682 5688 5696 5701 5707 5713 5719 5725
5290 5300 5309 5316 5325 5334 5344 5358 5374 5394 5415 5434 5456 5477 5496 5511 5525 5536 5549 5563 5571 5584 5595 5603 5616 5624 5634 5642 5652 5661 5669 5676 5682 5690 5695 5702 5708 5713
5284 5292 5299 5306 5313 5322 5331 5342 5357 5375 5396 5413 5438 5458 5476 5491 5510 5520 5528 5543 5556 5568 5579 5589 5601 5611 5621 5629 5639 5648 5656 5663 5669 5677 5685 5692 5696 5703
5278 5284 5290 5296 5303 5310 5319 5329 5344 5359 5378 5399 5423 5441 5457 5472 5490 5505 5512 5526 5541 5553 5566 5578 5588 5598 5609 5617 5625 5634 5642 5651 5658 5666 5671 5679 5684 5689
5272 5277 5282 5288 5293 5300 5310 5319 5331 5346 5360 5378 5399 5419 5436 5454 5471 5488 5500 5508 5525 5539 5552 5563 5576 5585 5593 5602 5611 5620 5628 5637 5645 5654 5660 5666 5671 5675
5267 5270 5274 5279 5283 5290 5299 5309 5319 5332 5345 5360 5376 5397 5415 5434 5452 5471 5473 5492 5508 5521 5534 5549 5561 5570 5577 5588 5597 5605 5612 5621 5630 5637 5644 5651 5657 5662
5263 5265 5268 5272 5276 5282 5289 5298 5309 5315 5328 5343 5358 5377 5397 5415 5435 5453 5462 5475 5488 5502 5518 5530 5541 5553 5564 5575 5584 5591 5598 5608 5616 5624 5631 5638 5645 5649
5259 5260 5262 5266 5270 5274 5281 5289 5296 5303 5313 5327 5341 5360 5380 5399 5417 5432 5443 5455 5471 5488 5497 5510 5526 5537 5545 5557 5567 5578 5585 5592 5601 5610 5618 5625 5631 5637
5255 5256 5257 5259 5263 5267 5273 5279 5285 5293 5301 5313 5328 5344 5362 5378 5393 5409 5426 5438 5452 5469 5479 5495 5510 5521 5529 5541 5553 5563 5572 5580 5588 5596 5604 5610 5618 5624
5249 5250 5251 5253 5255 5258 5262 5268 5275 5282 5290 5299 5312 5326 5341 5357 5375 5389 5403 5416 5436 5450 5463 5476 5491 5501 5513 5524 5536 5548 5558 5567 5577 5583 5591 5598 5605 5611
5244 5244 5244 5246 5248 5250 5254 5258 5263 5269 5276 5284 5294 5306 5321 5337 5356 5371 5386 5398 5418 5435 5448 5461 5474 5486 5498 5507 5519 5531 5542 5552 5562 5569 5576 5584 5591 5599
5240 5239 5239 5240 5241 5243 5246 5249 5253 5258 5263 5271 5280 5290 5304 5320 5335 5348 5365 5380 5398 5414 5430 5444 5455 5467 5480 5493 5506 5517 5527 5537 5547 5556 5562 5569 5578 5585
5237 5236 5235 5235 5235 5236 5239 5242 5245 5249 5253 5258 5266 5275 5286 5300 5314 5329 5345 5364 5381 5396 5413 5425 5438 5449 5462 5479 5493 5504 5513 5523 5533 5542 5549 5555 5564 5572
5234 5232 5231 5230 5230 5231 5232 5235 5238 5241 5245 5249 5253 5260 5269 5280 5295 5312 5328 5348 5365 5377 5394 5408 5425 5436 5452 5472 5481 5491 5498 5508 5517 5526 5534 5542 5551 5559
5230 5229 5227 5226 5226 5226 5227 5229 5231 5233 5236 5240 5244 5248 5254 5262 5275 5291 5309 5326 5343 5357 5372 5390 5414 5423 5436 5445 5456 5470 5482 5492 5501 5511 5521 5528 5536 5542
5227 5225 5224 5222 5222 5222 5223 5224 5225 5227 5229 5232 5235 5239 5243 5248 5258 5269 5286 5303 5320 5340 5362 5378 5387 5400 5412 5426 5442 5457 5470 5479 5488 5497 5507 5514 5522 5529
5224 5222 5221 5219 5218 5218 5218 5220 5222 5223 5224 5226 5227 5230 5233 5238 5243 5251 5262 5280 5298 5317 5336 5352 5365 5379 5396 5413 5424 5439 5454 5465 5477 5487 5495 5501 5508 5517
Wind_Speed
66 71 94 114 116 117 115 110 103 100 99 93 87 77 79 75 60 62 54 64 79 76 68 70 60 61 64 57 57 49 48 45 46 47 46 44 42 40
65 65 69 91 110 118 118 115 107 104 102 96 93 91 82 78 73 76 66 61 69 81 73 64 62 62 58 53 50 54 51 46 45 45 45 45 44 43
68 64 63 71 89 108 117 117 111 107 103 100 94 96 84 81 80 67 61 60 67 73 80 71 70 71 67 64 57 53 54 47 46 44 42 42 43 42
66 65 61 63 74 94 107 113 111 108 104 103 100 93 77 81 79 75 68 66 66 63 69 67 73 72 65 69 64 55 53 49 48 47 45 45 43 41
63 63 60 59 66 82 98 106 110 109 105 104 99 95 90 81 74 71 74 67 68 59 67 72 72 71 68 71 68 63 54 52 49 50 50 48 45 44
57 58 56 57 59 73 89 100 107 108 108 105 93 93 88 84 83 70 65 66 64 63 63 60 61 62 65 65 64 69 59 53 56 56 57 46 46 44
49 51 50 53 55 64 80 93 101 105 108 106 102 95 90 90 86 75 72 65 54 56 56 60 59 66 66 66 68 70 66 59 54 53 47 47 49 46
41 45 46 47 52 57 70 85 96 101 100 105 103 98 92 96 92 85 77 79 70 62 50 55 56 57 68 69 67 67 65 63 62 63 47 45 48 46
34 38 40 43 48 54 60 76 90 97 99 104 98 97 95 96 99 79 88 77 78 72 71 62 59 59 59 67 67 63 64 65 64 60 67 59 54 51
31 35 37 41 44 52 55 65 82 91 96 100 97 90 91 98 83 82 81 75 81 75 79 68 61 60 58 61 60 64 63 68 62 62 65 64 53 53
28 31 35 38 42 48 53 57 72 85 91 97 101 104 99 93 78 78 80 81 85 82 83 80 68 66 63 61 59 64 64 68 64 57 54 50 51 51
23 27 30 35 39 44 50 53 60 76 87 92 98 99 101 100 94 92 67 71 69 79 82 74 69 66 67 60 60 58 65 64 65 57 52 51 55 56
19 24 27 31 36 40 45 50 53 65 81 89 95 98 100 103 103 97 81 80 67 61 72 78 81 72 65 62 59 55 58 61 62 59 59 60 56 53
15 19 26 29 33 38 42 46 49 56 72 86 91 95 99 104 106 108 100 81 74 70 72 83 81 80 78 78 66 60 61 64 65 61 57 54 52 52
17 20 21 23 32 36 39 43 48 54 63 80 88 91 98 105 110 116 110 94 86 74 71 74 80 79 77 76 74 69 61 63 63 60 58 57 56 52
16 18 22 25 25 27 36 42 46 48 56 67 84 90 95 105 110 113 110 99 98 86 82 72 71 81 70 77 78 75 70 63 66 61 61 61 63 54
12 13 16 19 25 29 31 34 42 49 53 59 73 88 94 102 109 115 113 107 107 100 87 79 76 79 83 78 76 78 74 71 70 63 61 61 60 58
10 13 14 15 17 22 27 32 35 38 48 56 64 76 91 96 106 113 121 115 118 117 107 88 86 75 76 73 79 79 77 73 72 65 67 63 64 58
9 11 13 15 17 18 21 24 30 34 37 45 57 67 80 93 101 106 112 116 117 110 101 102 97 86 79 81 70 70 70 71 74 73 63 67 69 60
9 8 10 13 15 17 18 20 23 28 33 35 42 57 71 83 96 103 107 112 112 108 104 104 91 96 95 79 79 67 63 62 62 66 66 60 63 58
14 12 10 10 12 14 15 16 19 21 26 33 36 41 58 76 86 97 103 106 109 108 104 100 96 99 99 100 92 81 73 70 62 59 64 66 65 63
15 14 12 9 9 12 14 14 14 15 18 22 31 36 40 56 80 90 99 104 106 107 104 106 105 100 105 104 98 92 70 62 62 62 71 62 58 60
15 14 14 12 9 11 14 15 16 17 18 20 22 26 35 40 52 81 93 101 106 106 106 107 107 109 110 99 97 100 90 75 65 67 68 66 68 59
Wind_Direction
242 238 232 222 222 221 222 224 224 224 223 225 225 225 221 224 225 237 223 231 225 219 220 220 228 235 225 216 226 234 235 237 237 236 238 242 245 248
239 239 235 230 223 220 219 222 223 222 222 222 225 225 224 227 226 231 235 234 232 222 218 222 218 221 221 230 237 232 234 233 237 238 240 242 244 245
236 237 236 231 227 221 219 220 220 220 220 222 223 225 223 225 225 227 233 237 231 231 225 220 223 228 236 241 238 226 235 234 236 238 237 239 241 243
235 233 234 233 226 224 219 217 218 218 218 220 222 223 221 222 223 223 228 227 228 225 223 226 228 228 229 227 236 233 234 234 237 240 238 239 239 241
231 230 232 231 227 221 220 217 215 215 216 219 220 222 222 219 221 223 221 222 225 222 223 226 232 232 229 231 238 235 233 233 235 237 238 235 238 240
227 226 229 229 228 221 219 218 215 213 213 215 217 220 218 216 215 216 207 216 217 218 217 217 222 228 231 233 231 234 232 231 236 242 235 231 236 237
223 223 227 229 227 224 218 218 216 214 212 213 215 214 215 214 212 213 218 211 215 209 218 222 220 224 231 231 231 231 230 228 235 223 226 227 233 238
222 223 227 229 226 225 220 218 216 214 212 213 213 213 212 213 217 212 206 214 220 218 218 225 223 224 228 231 236 236 227 227 232 238 238 238 236 237
223 225 229 229 227 225 222 218 217 215 212 213 213 213 212 214 217 224 231 225 227 225 228 225 230 225 231 230 231 234 233 230 233 230 242 239 233 238
226 228 229 229 229 225 223 220 217 217 214 212 208 206 205 211 216 219 217 223 229 227 227 227 223 221 222 225 234 230 230 231 234 237 239 230 233 237
235 232 231 231 231 226 223 221 218 217 215 213 210 205 205 208 203 211 207 214 222 226 227 227 231 225 219 229 226 231 227 226 236 232 232 228 232 237
236 235 232 231 230 227 223 222 220 217 217 214 212 210 208 206 205 209 199 202 213 219 223 218 218 221 220 221 223 224 224 228 227 237 234 233 238 244
243 240 235 231 231 228 225 221 219 219 217 217 214 210 208 204 208 207 203 197 201 200 210 212 216 218 221 224 227 227 229 227 231 230 233 237 238 238
255 246 240 235 230 230 227 221 220 219 219 217 216 212 209 207 205 209 212 215 209 199 206 211 216 220 222 220 226 228 227 226 229 231 232 230 232 237
246 248 248 245 236 232 230 226 222 221 220 219 218 215 210 209 207 211 209 212 205 213 214 212 213 218 221 220 221 226 223 225 222 223 225 229 233 239
262 251 244 245 239 236 232 229 228 224 222 220 219 218 214 211 210 214 210 213 212 211 209 213 219 223 221 216 221 226 225 226 224 228 228 231 234 242
276 263 254 244 241 239 233 232 229 226 223 221 220 220 218 214 212 213 214 214 216 213 211 211 214 216 222 222 224 221 223 226 227 225 230 234 239 241
283 272 266 259 247 238 236 233 230 231 227 222 220 220 220 218 214 215 217 215 218 218 221 220 217 215 216 221 221 222 224 226 223 231 229 233 232 236
308 287 275 265 257 249 240 234 231 231 230 228 222 220 220 221 218 217 216 217 223 227 229 229 226 226 220 218 218 222 223 223 225 227 234 229 229 238
320 304 281 268 263 256 250 243 237 233 231 229 228 222 218 219 222 219 218 217 221 224 223 223 222 229 225 221 230 222 222 220 225 230 233 230 233 233
330 329 314 285 256 253 254 249 243 239 234 231 230 228 224 218 219 222 220 218 218 220 223 224 222 227 228 231 230 229 233 234 235 237 230 231 235 239
322 326 326 308 269 256 249 242 237 239 248 241 234 233 231 228 218 219 222 219 218 218 218 221 223 223 228 229 230 225 232 229 237 238 230 227 228 232
319 318 324 326 295 261 240 228 227 236 237 242 249 243 237 232 231 222 218 221 218 217 216 219 219 223 226 229 235 237 236 230 228 233 246 238 232 229